Location: Newark
(25.0000°N, 73.5000°E)
Time: 04:57:58
(UTC+00:00)

Altair - Pass Details

Date: 02 March 2021
Orbit: 1501 x 1683 km, 47.2° (Epoch: 12 April)

Event Time Altitude Azimuth Distance (km) Brightness Sun altitude
Rises 21:40:34 0° 309° (NW) 4,799 - -51.4°
Reaches altitude 10° 21:43:39 10° 307° (NW) 3,836 - -50.8°
Maximum altitude 21:53:19 64° 228° (SW) 1,798 - -48.7°
Exits shadow 22:01:45 16° 151° (SSE) 3,476 9.4 -46.9°
Drops below altitude 10° 22:03:16 10° 149° (SSE) 3,930 9.7 -46.6°
Sets 22:06:29 0° 146° (SSE) 4,922 10.3 -45.9°
